Location: Behlen Observatory
(41.1709°N, 96.4467°W)
Time: 09:15:25
(UTC-05:00)

Tiangong 2 - Visible Passes

Search period start: 21 June 2018 00:00
Search period end: 01 July 2018 00:00
Orbit: 291 x 297 km, 42.8° (Epoch: 21 June)

Date Brightness Start Highest point End Pass type
(mag) Time Alt. Az. Time Alt. Az. Time Alt. Az.
25 Jun 3.1 05:11:38 10° S 05:12:44 12° SSE 05:13:50 10° ESE visible
26 Jun 2.3 05:16:14 10° SSW 05:18:20 22° SSE 05:20:25 10° E visible
27 Jun 1.2 05:21:29 10° SW 05:23:55 41° SSE 05:26:22 10° E visible
28 Jun 3.2 03:56:02 12° SE 03:56:02 12° SE 03:56:33 10° ESE visible
29 Jun 2.3 04:01:05 23° SE 04:01:05 23° SE 04:02:41 10° E visible
30 Jun 1.0 04:06:03 45° SE 04:06:03 45° SE 04:08:19 10° E visible
